[Iaude] MPEC R46: 2023 RY [a=2.53,e=0.60,i=3.3,H=24.8]

mpec at marsden.cfa.harvard.edu mpec at marsden.cfa.harvard.edu
Thu Sep 7 23:37:15 EDT 2023


M.P.E.C. 2023-R46                             Issued 2023 September 8, 03:35 UT

     The Minor Planet Electronic Circulars contain information on unusual
         minor planets, routine data on comets and natural satellites,
         and occasional editorial announcements.  They are published
    on behalf of Division F of the International Astronomical Union by the
          Minor Planet Center, Smithsonian Astrophysical Observatory,
                          Cambridge, MA 02138, U.S.A.
			  
             Prepared using the Tamkin Foundation Computer Network

                              MPC at CFA.HARVARD.EDU
            URL https://www.minorplanetcenter.net/    ISSN 1523-6714

                                    2023 RY                                     


Observations:
     K23R00Y*1C2023 09 06.31407323 32 33.500+03 14 19.50         20.27GVER046G96
     K23R00Y 1C2023 09 06.31974823 32 35.851+03 14 57.73         20.10GVER046G96
     K23R00Y 1C2023 09 06.32541523 32 38.227+03 15 36.22         20.10GVER046G96
     K23R00Y 1C2023 09 06.33110423 32 40.578+03 16 14.48         20.20GVER046G96
     K23R00Y KC2023 09 07.00212423 37 52.56 +04 33 49.4          20.0 GVER046L01
     K23R00Y KC2023 09 07.00385223 37 53.34 +04 34 01.9          19.9 GVER046L01
     K23R00Y KC2023 09 07.00623023 37 54.35 +04 34 18.7          20.0 GVER046L01
     K23R00Y KC2023 09 07.00796123 37 55.16 +04 34 31.0          19.8 GVER046L01
     K23R00Y KC2023 09 07.01110223 37 56.59 +04 34 53.7          20.0 GVER046L01
     K23R00Y KC2023 09 07.06214 23 38 20.13 +04 40 58.8                VER046204
     K23R00Y KC2023 09 07.07240 23 38 24.81 +04 42 12.7                VER046204
     K23R00Y KC2023 09 07.08259 23 38 29.44 +04 43 25.9          20.3 GVER046204
     K23R00Y KC2023 09 07.09298923 38 34.19 +04 44 40.7          20.2 GVER046587
     K23R00Y KC2023 09 07.09552823 38 35.36 +04 44 58.6          19.9 GVER046587
     K23R00Y KC2023 09 07.09806523 38 36.52 +04 45 16.8          19.9 GVER046587
     K23R00Y  C2023 09 07.27554223 40 08.688+05 07 05.21         20.3 GVER046654
     K23R00Y  C2023 09 07.27955223 40 10.529+05 07 34.64         20.3 GVER046654
     K23R00Y  C2023 09 07.47638723 41 41.779+05 31 47.65         20.3 GVER046654
     K23R00Y  C2023 09 07.48039723 41 43.681+05 32 17.45         20.3 GVER046654
     K23R00Y 1C2023 09 07.95734 23 45 53.70 +06 32 19.3          20.3 VXER046033
     K23R00Y 1C2023 09 07.95792 23 45 53.98 +06 32 23.8          20.4 VXER046033
     K23R00Y 1C2023 09 07.95849 23 45 54.27 +06 32 28.3          20.3 VXER046033
     K23R00Y 1C2023 09 08.13360 23 47 22.40 +06 55 11.4          21.2 VXER046033
     K23R00Y 1C2023 09 08.13418 23 47 22.68 +06 55 15.6          21.0 VXER046033
     K23R00Y 1C2023 09 08.13475 23 47 22.98 +06 55 20.1          20.8 VXER046033

Observer details:
033 Karl Schwarzschild Observatory, Tautenburg.  Observers S. Melnikov, C.
    Hoegner, F. Ludwig, M. Hartmann, B. Stecklum.  Measurer B. Stecklum.
    1.34-m f/3 Schmidt + CCD.
204 Schiaparelli Observatory.  Observers L. Buzzi, G. Galli.  0.84-m f/3.5
    reflector + CCD.
587 Sormano.  Observers A. Carcano, E. Colzani.  Measurer P. Sicoli.  0.5-m
    f/6.8 reflector + CCD.
654 Table Mountain Observatory, Wrightwood-PHMC.  Observers N. Evans, P. Choi,
    N. Saini, C. Zhai, R. Trahan, M. Shao.  1.0-m Reflector + CCD.
G96 Mt. Lemmon Survey.  Observer A. R. Gibbs.  Measurers E. J. Christensen, D.
    Fay, J. B. Fazekas, D. C. Fuls, A. R. Gibbs, A. D. Grauer, H. Groeller, J.
    K. Hogan, R. A. Kowalski, S. M. Larson, G. J. Leonard, D. Rankin, R. L.
    Seaman, A. Serrano, F. C. Shelly, K. W. Wierzchos.  1.5-m reflector + 10K
    CCD.
L01 Visnjan Observatory, Tican.  Observer K. Korlevic.  1.0-m f/2.9 reflector
    + CCD.

Orbital elements:
2023 RY                                                  Earth MOID = 0.0383 AU
Epoch 2023 Sept. 13.0 TT = JDT 2460200.5                Veres                   
M 354.01619              (2000.0)            P               Q                  
n   0.24425239     Peri.   44.17707     +0.93799573     -0.34586692             
a   2.5346043      Node   336.02852     +0.30007614     +0.84371671             
e   0.5993404      Incl.    3.27917     +0.17354631     +0.41050967             
P   4.04           H   24.85          G   0.15           U   9                  
Residuals in seconds of arc
230906 G96  0.0   0.1+    230907 204  0.0   0.1+    230907 654  0.0   0.1-
230906 G96  0.2-  0.0     230907 204  0.1+  0.3+    230907 033  0.1-  0.2-
230906 G96  0.1+  0.1+    230907 204  0.2-  0.2+    230907 033  0.2-  0.2-
230906 G96  0.1-  0.1-    230907 587  0.0   0.3+    230907 033  0.1-  0.1-
230907 L01  0.2-  0.4+    230907 587  0.1+  0.1-    230908 033  0.1+  0.1-
230907 L01  0.2-  0.6+    230907 587  0.0   0.1-    230908 033  0.2-  0.4-
230907 L01  1.1-  0.4+    230907 654  0.1+  0.1+    230908 033  0.1-  0.3-
230907 L01  0.6-  0.3+    230907 654  0.0   0.0
230907 L01  0.4-  0.5+    230907 654  0.1+  0.1-

Ephemeris:
2023 RY                  a,e,i = 2.53, 0.60, 3                   q = 1.0155
Date    TT    R. A. (2000) Decl.     Delta      r    Elong.  Phase     V
2023 08 09    22 06 22.7 -16 55 06   0.2585  1.2674   167.2    10.2    23.1
...
2023 08 24    22 32 33.7 -11 29 43   0.1567  1.1673   174.3     4.9    21.6
...
2023 09 01    23 00 43.2 -04 42 52   0.1125  1.1212   173.3     6.0    20.8
...
2023 09 07    23 37 51.6 +04 34 35   0.08555 1.0910   165.6    13.3    20.5
2023 09 08    23 46 14.6 +06 38 59   0.08180 1.0864   163.5    15.2    20.4
2023 09 09    23 55 26.8 +08 53 40   0.07832 1.0819   161.2    17.5    20.4
...
2023 09 15    01 12 30.5 +25 21 01   0.06480 1.0577   141.9    35.9    20.5
...
2023 09 23    03 49 17.5 +42 35 52   0.07097 1.0333   112.9    63.5    21.4
...
2023 10 08    06 51 12.5 +42 11 09   0.1245  1.0155    93.9    79.1    23.1

M. P. C. Staff               (C) Copyright 2023 MPC           M.P.E.C. 2023-R46





More information about the Iaude mailing list